Location: Unspecified
(40.7945°N, 111.1337°W)
Time: 12:38:00
(UTC-06:00)

Vanguard 1 - Pass Details

Date: 25 June 2019
Orbit: 654 x 3829 km, 34.2° (Epoch: 25 August)

Event Time Altitude Azimuth Distance (km) Brightness Sun altitude
Rises 00:10:45 0° 200° (SSW) 7,852 - -23.4°
Reaches altitude 10° 00:17:37 10° 189° (S) 6,920 - -23.8°
Exits shadow 00:34:05 27° 144° (SE) 5,240 13.2 -24.6°
Maximum altitude 00:34:33 27° 142° (SE) 5,217 13.2 -24.7°
Drops below altitude 10° 00:48:04 10° 94° (E) 5,572 13.7 -25.2°
Sets 00:52:37 0° 83° (E) 6,146 14.1 -25.3°
